Location: Arrington
(35.8681°N, 86.7092°W)
Time: 13:32:33
(UTC+00:00)

Atlas Centaur 2 - Pass Details

Date: 23 November 2019
Orbit: 459 x 1311 km, 30.4° (Epoch: 05 December)

Event Time Altitude Azimuth Distance (km) Brightness Sun altitude
Rises 01:53:49 0° 235° (SW) 4,234 6.4 -39.9°
Reaches altitude 10° 01:57:07 10° 228° (SW) 3,200 5.6 -40.5°
Enters shadow 02:00:31 24° 212° (SSW) 2,240 4.5 -41.2°
